BAW386A EGLL-EBBR

Flight info

Callsign BAW386A
Flight time 0h 55m
Altitude 23000
Route DET Q70 KOK
Aircraft A320/M-SDE3FGHIJ1RWXY/S

Departure

Time 2026-05-07 20:23
Airport London Heathrow Airport (EGLL)

Arrival

Time 2026-05-07 21:19
Airport Brussels Airport (EBBR)
Time Latitude Longitude Altitude Speed Heading
2026-05-07 19:45 51.47360 -0.48590 87 ft 0 kts 270°
2026-05-07 20:08 51.47360 -0.48561 87 ft 4 kts 266°
2026-05-07 20:08 51.47364 -0.48518 87 ft 4 kts 253°
2026-05-07 20:08 51.47375 -0.48483 89 ft 4 kts 207°
2026-05-07 20:09 51.47384 -0.48477 89 ft 0 kts 180°
2026-05-07 20:12 51.47364 -0.48477 89 ft 5 kts 180°
2026-05-07 20:12 51.47327 -0.48477 87 ft 10 kts 180°
2026-05-07 20:13 51.47269 -0.48423 90 ft 11 kts 109°
2026-05-07 20:13 51.47224 -0.48359 89 ft 11 kts 181°
2026-05-07 20:13 51.47139 -0.48360 87 ft 14 kts 180°
2026-05-07 20:13 51.47040 -0.48359 87 ft 10 kts 179°
2026-05-07 20:14 51.46956 -0.48358 87 ft 14 kts 179°
2026-05-07 20:14 51.46855 -0.48357 87 ft 14 kts 179°
2026-05-07 20:14 51.46828 -0.48357 88 ft 0 kts 180°
2026-05-07 20:18 51.46816 -0.48357 89 ft 3 kts 180°
2026-05-07 20:19 51.46783 -0.48357 87 ft 6 kts 180°
2026-05-07 20:19 51.46745 -0.48392 88 ft 8 kts 251°
2026-05-07 20:19 51.46741 -0.48494 87 ft 11 kts 269°
2026-05-07 20:19 51.46741 -0.48627 87 ft 13 kts 269°
2026-05-07 20:20 51.46708 -0.48751 88 ft 13 kts 189°
2026-05-07 20:20 51.46619 -0.48758 89 ft 13 kts 195°
2026-05-07 20:20 51.46600 -0.48770 90 ft 0 kts 202°
2026-05-07 20:21 51.46597 -0.48772 90 ft 2 kts 202°
2026-05-07 20:21 51.46577 -0.48783 87 ft 5 kts 197°
2026-05-07 20:21 51.46537 -0.48792 87 ft 7 kts 182°
2026-05-07 20:21 51.46489 -0.48747 88 ft 9 kts 128°
2026-05-07 20:22 51.46476 -0.48658 88 ft 0 kts 89°
2026-05-07 20:22 51.46476 -0.48646 88 ft 3 kts 89°
2026-05-07 20:23 51.46478 -0.48419 89 ft 51 kts 90°
2026-05-07 20:23 51.46481 -0.47465 86 ft 116 kts 89°
2026-05-07 20:23 51.46485 -0.45916 154 ft 155 kts 91°
2026-05-07 20:23 51.46483 -0.44199 819 ft 154 kts 91°
2026-05-07 20:24 51.46500 -0.42460 1494 ft 156 kts 93°
2026-05-07 20:24 51.46137 -0.40884 2083 ft 153 kts 135°
2026-05-07 20:24 51.45414 -0.39572 2549 ft 166 kts 124°
2026-05-07 20:24 51.44767 -0.37881 2853 ft 189 kts 121°
2026-05-07 20:25 51.44066 -0.35920 3195 ft 216 kts 120°
2026-05-07 20:25 51.43486 -0.33567 3639 ft 241 kts 102°
2026-05-07 20:25 51.43117 -0.30836 4313 ft 257 kts 102°
2026-05-07 20:25 51.42720 -0.28014 5250 ft 262 kts 103°
2026-05-07 20:26 51.42314 -0.25109 5803 ft 270 kts 102°
2026-05-07 20:26 51.41917 -0.22213 5967 ft 270 kts 102°
2026-05-07 20:26 51.41519 -0.19274 6038 ft 272 kts 102°
2026-05-07 20:26 51.41118 -0.16306 6896 ft 273 kts 102°
2026-05-07 20:27 51.40709 -0.13298 7806 ft 278 kts 103°
2026-05-07 20:27 51.40291 -0.10236 8674 ft 284 kts 103°
2026-05-07 20:27 51.39861 -0.07113 9558 ft 290 kts 103°
2026-05-07 20:27 51.39421 -0.03939 10320 ft 299 kts 103°
2026-05-07 20:28 51.38949 -0.00555 10592 ft 323 kts 104°
2026-05-07 20:28 51.38443 0.03061 10988 ft 340 kts 104°
2026-05-07 20:28 51.37920 0.06783 11678 ft 345 kts 104°
2026-05-07 20:28 51.37393 0.10556 12436 ft 349 kts 104°
2026-05-07 20:29 51.36861 0.14356 13193 ft 352 kts 104°
2026-05-07 20:29 51.36320 0.18210 13941 ft 356 kts 104°
2026-05-07 20:29 51.35775 0.22094 14598 ft 360 kts 104°
2026-05-07 20:29 51.35223 0.26018 15238 ft 364 kts 104°
2026-05-07 20:30 51.34663 0.29988 15865 ft 368 kts 104°
2026-05-07 20:30 51.34094 0.34000 16316 ft 372 kts 104°
2026-05-07 20:30 51.33515 0.38048 16924 ft 376 kts 104°
2026-05-07 20:30 51.32936 0.42083 17533 ft 379 kts 104°
2026-05-07 20:31 51.32341 0.46220 18144 ft 384 kts 104°
2026-05-07 20:31 51.31740 0.50402 18704 ft 388 kts 104°
2026-05-07 20:31 51.31134 0.54625 19292 ft 391 kts 104°
2026-05-07 20:31 51.30541 0.58879 19876 ft 395 kts 101°
2026-05-07 20:32 51.30268 0.63274 20449 ft 399 kts 94°
2026-05-07 20:32 51.30119 0.67726 21004 ft 403 kts 94°
2026-05-07 20:32 51.29964 0.72218 21563 ft 406 kts 94°
2026-05-07 20:32 51.29801 0.76743 22106 ft 409 kts 94°
2026-05-07 20:33 51.29634 0.81300 22636 ft 413 kts 94°
2026-05-07 20:33 51.29463 0.85893 23042 ft 415 kts 94°
2026-05-07 20:33 51.29289 0.90526 23098 ft 420 kts 95°
2026-05-07 20:33 51.29110 0.95187 23092 ft 421 kts 95°
2026-05-07 20:34 51.28930 0.99800 23091 ft 422 kts 95°
2026-05-07 20:34 51.28748 1.04485 23090 ft 422 kts 95°
2026-05-07 20:34 51.28567 1.09163 23092 ft 422 kts 95°
2026-05-07 20:34 51.28383 1.13843 23094 ft 422 kts 95°
2026-05-07 20:35 51.28198 1.18518 23092 ft 422 kts 95°
2026-05-07 20:35 51.28010 1.23202 23091 ft 422 kts 95°
2026-05-07 20:35 51.27821 1.27880 23089 ft 422 kts 95°
2026-05-07 20:35 51.27631 1.32554 23094 ft 422 kts 95°
2026-05-07 20:36 51.27440 1.37227 23091 ft 422 kts 95°
2026-05-07 20:36 51.27243 1.41903 23089 ft 422 kts 95°
2026-05-07 20:36 51.27042 1.46586 23089 ft 422 kts 95°
2026-05-07 20:36 51.26840 1.51270 23087 ft 422 kts 95°
2026-05-07 20:37 51.26640 1.55950 23087 ft 422 kts 95°
2026-05-07 20:37 51.26439 1.60622 23087 ft 422 kts 95°
2026-05-07 20:37 51.26236 1.65304 23085 ft 422 kts 95°
2026-05-07 20:37 51.26031 1.69978 23086 ft 422 kts 95°
2026-05-07 20:38 51.25820 1.74651 23084 ft 422 kts 95°
2026-05-07 20:38 51.25605 1.79327 23079 ft 422 kts 95°
2026-05-07 20:38 51.25391 1.84009 23087 ft 422 kts 95°
2026-05-07 20:38 51.25178 1.88625 23092 ft 422 kts 95°
2026-05-07 20:39 51.24960 1.93298 23092 ft 423 kts 95°
2026-05-07 20:39 51.24741 1.97975 23090 ft 423 kts 95°
2026-05-07 20:39 51.24520 2.02661 23093 ft 423 kts 95°
2026-05-07 20:39 51.24299 2.07348 23091 ft 423 kts 95°
2026-05-07 20:40 51.24078 2.12038 23094 ft 423 kts 95°
2026-05-07 20:40 51.23856 2.16728 23095 ft 423 kts 95°
2026-05-07 20:40 51.23630 2.21420 23096 ft 424 kts 95°
2026-05-07 20:40 51.23401 2.26109 23096 ft 424 kts 95°
2026-05-07 20:41 51.23169 2.30796 23096 ft 424 kts 95°
2026-05-07 20:41 51.22794 2.35450 23093 ft 423 kts 103°
2026-05-07 20:41 51.21935 2.39915 23098 ft 421 kts 114°
2026-05-07 20:41 51.20637 2.44010 23100 ft 419 kts 123°
2026-05-07 20:42 51.18909 2.47736 23098 ft 417 kts 133°
2026-05-07 20:42 51.17011 2.51230 23096 ft 417 kts 133°
2026-05-07 20:42 51.15114 2.54729 23100 ft 417 kts 133°
2026-05-07 20:42 51.13219 2.58233 23103 ft 417 kts 132°
2026-05-07 20:43 51.11391 2.61827 23096 ft 417 kts 127°
2026-05-07 20:43 51.09935 2.65768 22633 ft 412 kts 116°
2026-05-07 20:43 51.08944 2.70030 22093 ft 409 kts 106°
2026-05-07 20:43 51.08376 2.74457 21561 ft 406 kts 101°
2026-05-07 20:44 51.07867 2.78856 21040 ft 403 kts 101°
2026-05-07 20:44 51.07341 2.83210 20531 ft 399 kts 102°
2026-05-07 20:44 51.06807 2.87527 20021 ft 396 kts 102°
2026-05-07 20:44 51.06275 2.91799 19533 ft 392 kts 102°
2026-05-07 20:45 51.05757 2.95982 19046 ft 389 kts 102°
2026-05-07 20:45 51.05242 3.00181 18568 ft 385 kts 102°
2026-05-07 20:45 51.04735 3.04338 18047 ft 381 kts 102°
2026-05-07 20:45 51.04233 3.08450 17508 ft 377 kts 102°
2026-05-07 20:46 51.03736 3.12526 16965 ft 374 kts 102°
2026-05-07 20:46 51.03240 3.16561 16446 ft 370 kts 102°
2026-05-07 20:46 51.02746 3.20555 15928 ft 367 kts 102°
2026-05-07 20:46 51.02254 3.24515 15427 ft 363 kts 102°
2026-05-07 20:47 51.01766 3.28444 14921 ft 360 kts 102°
2026-05-07 20:47 51.01282 3.32324 14431 ft 357 kts 102°
2026-05-07 20:47 51.00801 3.36174 13953 ft 354 kts 102°
2026-05-07 20:47 51.00322 3.39988 13421 ft 351 kts 102°
2026-05-07 20:48 50.99844 3.43770 12889 ft 348 kts 102°
2026-05-07 20:48 50.99366 3.47537 12362 ft 346 kts 102°
2026-05-07 20:48 50.98895 3.51262 11849 ft 343 kts 102°
2026-05-07 20:48 50.98429 3.54951 11491 ft 337 kts 102°
2026-05-07 20:49 50.97970 3.58560 11165 ft 330 kts 102°
2026-05-07 20:49 50.97519 3.62099 10848 ft 325 kts 102°
2026-05-07 20:49 50.97074 3.65570 10641 ft 316 kts 102°
2026-05-07 20:49 50.96643 3.68922 10513 ft 305 kts 102°
2026-05-07 20:50 50.96225 3.72161 10389 ft 295 kts 102°
2026-05-07 20:50 50.95818 3.75299 10267 ft 286 kts 102°
2026-05-07 20:50 50.95424 3.78344 10147 ft 277 kts 102°
2026-05-07 20:50 50.95041 3.81287 9890 ft 274 kts 102°
2026-05-07 20:51 50.94656 3.84228 9647 ft 271 kts 102°
2026-05-07 20:51 50.94274 3.87144 9364 ft 268 kts 102°
2026-05-07 20:51 50.93900 3.90027 9097 ft 266 kts 102°
2026-05-07 20:51 50.93530 3.92886 8834 ft 263 kts 102°
2026-05-07 20:52 50.93226 3.95738 8575 ft 261 kts 96°
2026-05-07 20:52 50.93172 3.98580 8320 ft 254 kts 88°
2026-05-07 20:52 50.93363 4.01325 8063 ft 249 kts 80°
2026-05-07 20:52 50.93781 4.03979 7808 ft 248 kts 72°
2026-05-07 20:53 50.93934 4.04673 7749 ft 248 kts 70°
2026-05-07 20:53 50.94522 4.07182 7499 ft 246 kts 70°
2026-05-07 20:53 50.95109 4.09725 7248 ft 245 kts 70°
2026-05-07 20:53 50.95687 4.12256 7001 ft 244 kts 71°
2026-05-07 20:54 50.96261 4.14784 6752 ft 243 kts 71°
2026-05-07 20:54 50.96831 4.17297 6509 ft 241 kts 71°
2026-05-07 20:54 50.97399 4.19794 6243 ft 240 kts 71°
2026-05-07 20:54 50.97968 4.22278 5991 ft 239 kts 71°
2026-05-07 20:55 50.98529 4.24742 5729 ft 237 kts 71°
2026-05-07 20:55 50.99086 4.27191 5466 ft 235 kts 71°
2026-05-07 20:55 50.99639 4.29620 5218 ft 233 kts 71°
2026-05-07 20:55 51.00189 4.32036 4972 ft 231 kts 71°
2026-05-07 20:56 51.00733 4.34430 4709 ft 230 kts 71°
2026-05-07 20:56 51.01270 4.36812 4443 ft 229 kts 71°
2026-05-07 20:56 51.01805 4.39182 4187 ft 227 kts 71°
2026-05-07 20:56 51.02336 4.41540 4043 ft 227 kts 71°
2026-05-07 20:57 51.02861 4.43868 4030 ft 227 kts 71°
2026-05-07 20:57 51.03379 4.46167 3938 ft 217 kts 71°
2026-05-07 20:57 51.03884 4.48416 3678 ft 215 kts 71°
2026-05-07 20:57 51.04382 4.50638 3422 ft 212 kts 71°
2026-05-07 20:58 51.04875 4.52839 3166 ft 210 kts 71°
2026-05-07 20:58 51.05205 4.54309 2992 ft 209 kts 71°
2026-05-07 20:58 51.05693 4.56474 2736 ft 207 kts 71°
2026-05-07 20:58 51.06175 4.58617 2481 ft 205 kts 71°
2026-05-07 20:59 51.06344 4.60788 2212 ft 202 kts 102°
2026-05-07 20:59 51.05667 4.62690 2064 ft 201 kts 135°
2026-05-07 20:59 51.04600 4.64094 2018 ft 194 kts 142°
2026-05-07 20:59 51.03529 4.65350 2024 ft 189 kts 142°
2026-05-07 21:00 51.02470 4.66573 2026 ft 188 kts 143°
2026-05-07 21:00 51.01415 4.67789 2032 ft 187 kts 143°
2026-05-07 21:00 51.00363 4.69002 2045 ft 186 kts 143°
2026-05-07 21:00 50.99313 4.70210 2045 ft 187 kts 143°
2026-05-07 21:01 50.98255 4.71398 2030 ft 186 kts 148°
2026-05-07 21:01 50.97106 4.72129 2021 ft 172 kts 161°
2026-05-07 21:01 50.95949 4.72188 2016 ft 169 kts 199°
2026-05-07 21:01 50.94917 4.71305 2030 ft 169 kts 216°
2026-05-07 21:02 50.94033 4.70071 2031 ft 170 kts 227°
2026-05-07 21:02 50.93599 4.68374 2064 ft 169 kts 260°
2026-05-07 21:02 50.93236 4.66603 2036 ft 166 kts 246°
2026-05-07 21:02 50.92829 4.65001 1868 ft 150 kts 248°
2026-05-07 21:03 50.92466 4.63481 1693 ft 145 kts 249°
2026-05-07 21:03 50.92118 4.61993 1501 ft 143 kts 249°
2026-05-07 21:03 50.91778 4.60520 1313 ft 142 kts 250°
2026-05-07 21:03 50.91440 4.59056 1119 ft 141 kts 250°
2026-05-07 21:04 50.91109 4.57600 917 ft 140 kts 250°
2026-05-07 21:04 50.90787 4.56150 685 ft 138 kts 251°
2026-05-07 21:04 50.90476 4.54734 525 ft 138 kts 250°
2026-05-07 21:04 50.90135 4.53320 367 ft 138 kts 249°
2026-05-07 21:05 50.89802 4.51903 210 ft 137 kts 250°
2026-05-07 21:05 50.89474 4.50446 440 ft 145 kts 251°
2026-05-07 21:05 50.89160 4.48951 1103 ft 138 kts 251°
2026-05-07 21:05 50.88866 4.47525 1591 ft 134 kts 251°
2026-05-07 21:06 50.88583 4.46122 2008 ft 137 kts 251°
2026-05-07 21:06 50.88271 4.44598 2269 ft 156 kts 251°
2026-05-07 21:06 50.87912 4.42870 2636 ft 175 kts 251°
2026-05-07 21:06 50.87359 4.41040 2948 ft 196 kts 226°
2026-05-07 21:07 50.86149 4.39947 3439 ft 208 kts 187°
2026-05-07 21:07 50.84710 4.40182 3920 ft 212 kts 155°
2026-05-07 21:07 50.83587 4.41595 4017 ft 207 kts 126°
2026-05-07 21:07 50.82956 4.43623 4033 ft 206 kts 109°
2026-05-07 21:08 50.82513 4.45748 4035 ft 206 kts 107°
2026-05-07 21:08 50.82093 4.47910 4037 ft 206 kts 105°
2026-05-07 21:08 50.82038 4.50142 4037 ft 206 kts 79°
2026-05-07 21:08 50.82406 4.52338 4039 ft 207 kts 73°
2026-05-07 21:09 50.82837 4.54506 4034 ft 207 kts 73°
2026-05-07 21:09 50.83279 4.56671 4037 ft 209 kts 73°
2026-05-07 21:09 50.83750 4.58970 4038 ft 225 kts 72°
2026-05-07 21:09 50.84233 4.61336 4037 ft 227 kts 72°
2026-05-07 21:10 50.84720 4.63715 4035 ft 227 kts 72°
2026-05-07 21:10 50.85207 4.66094 4033 ft 227 kts 73°
2026-05-07 21:10 50.85694 4.68475 4036 ft 227 kts 73°
2026-05-07 21:10 50.86182 4.70853 4032 ft 227 kts 73°
2026-05-07 21:11 50.86670 4.73231 4033 ft 227 kts 73°
2026-05-07 21:11 50.87161 4.75623 3874 ft 228 kts 73°
2026-05-07 21:11 50.88122 4.80324 3351 ft 224 kts 73°
2026-05-07 21:12 50.88597 4.82658 3098 ft 222 kts 72°
2026-05-07 21:12 50.89069 4.84988 2841 ft 222 kts 73°
2026-05-07 21:12 50.89537 4.87316 2579 ft 221 kts 73°
2026-05-07 21:12 50.90129 4.89525 2318 ft 218 kts 53°
2026-05-07 21:13 50.91326 4.90903 2092 ft 214 kts 18°
2026-05-07 21:13 50.92768 4.90897 2014 ft 209 kts 341°
2026-05-07 21:13 50.93918 4.89547 2021 ft 209 kts 307°
2026-05-07 21:13 50.94460 4.87430 2023 ft 209 kts 275°
2026-05-07 21:14 50.94371 4.85190 2017 ft 200 kts 263°
2026-05-07 21:14 50.94220 4.83030 2024 ft 195 kts 264°
2026-05-07 21:14 50.94077 4.80894 2028 ft 194 kts 264°
2026-05-07 21:14 50.93935 4.78769 2027 ft 194 kts 263°
2026-05-07 21:15 50.93794 4.76650 2057 ft 193 kts 264°
2026-05-07 21:15 50.93659 4.74606 2027 ft 179 kts 264°
2026-05-07 21:15 50.93532 4.72678 2026 ft 173 kts 264°
2026-05-07 21:15 50.93407 4.70790 2027 ft 171 kts 264°
2026-05-07 21:16 50.93284 4.68924 2050 ft 170 kts 264°
2026-05-07 21:16 50.93161 4.67060 2038 ft 170 kts 263°
2026-05-07 21:16 50.92877 4.65358 1920 ft 153 kts 250°
2026-05-07 21:16 50.92526 4.63806 1728 ft 146 kts 249°
2026-05-07 21:17 50.92184 4.62308 1545 ft 143 kts 249°
2026-05-07 21:17 50.91845 4.60827 1355 ft 142 kts 249°
2026-05-07 21:17 50.91510 4.59357 1166 ft 141 kts 250°
2026-05-07 21:17 50.91181 4.57901 968 ft 140 kts 250°
2026-05-07 21:18 50.90852 4.56456 747 ft 139 kts 249°
2026-05-07 21:18 50.90519 4.55031 573 ft 138 kts 250°
2026-05-07 21:18 50.90192 4.53604 384 ft 137 kts 250°
2026-05-07 21:18 50.89865 4.52184 206 ft 137 kts 250°
2026-05-07 21:19 50.89563 4.50892 175 ft 107 kts 250°
2026-05-07 21:19 50.89363 4.50038 177 ft 54 kts 250°
2026-05-07 21:19 50.89341 4.49751 177 ft 16 kts 287°
2026-05-07 21:19 50.89407 4.49593 168 ft 16 kts 306°
2026-05-07 21:20 50.89468 4.49460 165 ft 11 kts 307°
2026-05-07 21:20 50.89498 4.49395 164 ft 0 kts 307°
2026-05-07 21:20 50.89500 4.49391 164 ft 0 kts 307°
2026-05-07 21:20 50.89504 4.49384 164 ft 2 kts 307°
2026-05-07 21:21 50.89525 4.49339 162 ft 9 kts 307°
2026-05-07 21:21 50.89576 4.49241 157 ft 13 kts 309°
2026-05-07 21:21 50.89648 4.49144 152 ft 15 kts
2026-05-07 21:21 50.89771 4.49197 145 ft 22 kts 14°
2026-05-07 21:22 50.89895 4.49247 138 ft 19 kts 15°
2026-05-07 21:22 50.90022 4.49300 132 ft 19 kts 15°
2026-05-07 21:22 50.90142 4.49349 128 ft 19 kts 14°
2026-05-07 21:22 50.90245 4.49391 124 ft 15 kts 14°
2026-05-07 21:23 50.90276 4.49400 123 ft 1 kts
2026-05-07 21:23 50.90304 4.49398 125 ft 7 kts 355°
2026-05-07 21:23 50.90331 4.49336 125 ft 8 kts 260°
2026-05-07 21:23 50.90306 4.49249 124 ft 10 kts 245°
2026-05-07 21:24 50.90273 4.49136 123 ft 13 kts 245°
2026-05-07 21:24 50.90230 4.48988 124 ft 17 kts 245°
2026-05-07 21:24 50.90178 4.48806 123 ft 18 kts 246°
2026-05-07 21:24 50.90126 4.48625 125 ft 17 kts 245°
2026-05-07 21:25 50.90085 4.48486 124 ft 14 kts 245°
2026-05-07 21:25 50.90046 4.48430 128 ft 5 kts 168°
2026-05-07 21:25 50.90020 4.48459 128 ft 5 kts 153°
2026-05-07 21:25 50.90002 4.48473 128 ft 0 kts 154°